Regional Weather Roundup
Issued by NWS

Home | Current Version | Previous Version | Graphics & Text | Print | Product List | Glossary On
Versions: 1 2 3 4 5 6 7 8 9 10 11 12 13 14 15 16 17 18 19 20 21 22 23 24 25 26 27 28 29 30 31 32 33 34 35 36 37 38 39 40 41 42 43 44 45 46 47 48 49 50
000
ASUS43 KMPX 172010
RWRMN
WEATHER ROUNDUP FOR MINNESOTA
NATIONAL WEATHER SERVICE TWIN CITIES/CHANHASSEN MN
200 PM CST SAT FEB 17 2018


NOTE: "FAIR" INDICATES FEW OR NO CLOUDS BELOW 12,000 FEET WITH NO
SIGNIFICANT WEATHER AND/OR OBSTRUCTIONS TO VISIBILITY. N/A MEANS
CURRENT SKY AND/OR WEATHER CONDITIONS ARE NOT AVAILABLE.

MNZ060>063-068>070-172100-
   Twin Cities Metro

CITY           SKY/WX    TMP DP  RH WIND       PRES   REMARKS
TWIN CITIES    PTSUNNY   35  23  61 W10G21    29.88S WCI  27
ST PAUL        FAIR      34  22  61 W13       29.89R WCI  25
CRYSTAL        FAIR      34  19  54 W13       29.87R WCI  25
BLAINE         PTSUNNY   37  19  48 W13G20    29.86
LAKEVILLE      PTSUNNY   30  25  80 W8        29.89R WCI  23
EDEN PRAIRIE   FAIR      34  20  56 W10       29.87S WCI  26
SOUTH ST PAUL  PTSUNNY   33  24  68 W9        29.89R WCI  25
LAKE ELMO      PTSUNNY   32  23  69 W10       29.88R WCI  24
$$
MNZ001>005-007-008-013>017-022>024-027-028-172100-
   Northwest Minnesota

CITY           SKY/WX    TMP DP  RH WIND       PRES   REMARKS
BEMIDJI        PTSUNNY   20  10  66 W17       29.84S WCI   5
HALLOCK        FAIR      21   7  53 W17       29.88F WCI   7
ROSEAU         FAIR      18   9  68 W14       29.84  WCI   4
WARROAD        FAIR      18   7  62 W14       29.82S WCI   4
THIEF RVR FALL FAIR      19   8  62 NW17      29.89R WCI   4
CROOKSTON      FAIR      21   9  58 NW20G26   29.93R WCI   6
FOSSTON        FAIR      19   9  63 W16G24    29.89R WCI   5
DETROIT LAKES  FAIR      23  12  63 NW15G24   29.91S WCI  10
MOORHEAD       FAIR      25   9  50 NW20G25   29.97R WCI  11
PARK RAPIDS    FAIR      22  12  65 W21       29.85S WCI   6
MAHNOMEN       FAIR      21  11  66 W22       29.90R WCI   5
$$
MNZ006-009>011-018-025>026-172100-
   North Central Minnesota

CITY           SKY/WX    TMP DP  RH WIND       PRES   REMARKS
BAUDETTE       FAIR      17   6  62 W16G29    29.79R WCI   2
FLAG ISLAND    FAIR      18   1  49 W17G25    29.77F WCI   2
INTL FALLS     FAIR      20   2  45 NW16G24   29.77S WCI   6
WASKISH        FAIR      19  12  73 W15       29.82R WCI   5
BIG FORK       PTSUNNY   21  10  63 W12G18    29.79S WCI   9
LONGVILLE      CLOUDY    27  12  54 W15       29.83S WCI  15
GRAND RAPIDS   FLURRIES  23  13  65 NW14G21   29.82S WCI  11
CRANE LAKE     FAIR      23   3  42 W7        29.77R WCI  15
ORR            CLOUDY    21   9  58 W13       29.74R WCI   9
COOK           CLOUDY    23  10  58 W16       29.76S WCI  10
WALKER         CLOUDY    24  12  61 W15G26    29.83S WCI  11
$$
MNZ012-019>021-037-172100-
   Northeast Minnesota

CITY           SKY/WX    TMP DP  RH WIND       PRES   REMARKS
DULUTH         PTSUNNY   28  12  51 W21G28    29.75S WCI  15
ELY            PTSUNNY   21   9  58 W16G22    29.72S WCI   7
HIBBING        CLOUDY    22   9  57 NW15G23   29.78R WCI   9
EVELETH        PTSUNNY  N/A N/A N/A W13       29.77S
DULUTH HARBOR  PTSUNNY   30  18  59 W16       29.81S WCI  19
TWO HARBORS    FAIR      32  16  51 W10G20    29.74R WCI  24
GRAND MARAIS     N/A     31  11  43 W12G23    29.71S WCI  22
G MARAIS ARPRT FAIR      21   3  45 W12G22    29.65S WCI   9
$$
MNZ029>031-032-039>041-046>048-054>057-064-172100-
   West Central Minnesota

CITY           SKY/WX    TMP DP  RH WIND       PRES   REMARKS
FERGUS FALLS   FAIR      25  12  58 NW22G31   29.94R WCI  10
WHEATON        SUNNY     30   5  34 NW22G28   29.98R WCI  17
MORRIS         MOSUNNY   34   9  35 NW25G31   29.92F WCI  21
ALEXANDRIA     FAIR      28  11  48 NW22G31   29.90R WCI  14
ELBOW LAKE     FAIR      28  10  48 W20G29    29.93S WCI  14
WADENA         FAIR      23  12  63 NW16G23   29.89R WCI  10
GLENWOOD       FAIR      30  10  43 NW23G30   29.90R WCI  17
APPLETON       SUNNY     36   9  32 NW24      29.95S
BENSON         MOSUNNY   36   9  32 NW25G32   29.94S
ORTONVILLE     MOSUNNY   34  10  37 NW20G29   29.95S WCI  22
MADISON        MOSUNNY   39  16  38 NW18G29   29.95S
WILLMAR        FAIR      36  14  41 NW21G33   29.94R
$$
MNZ033>034-036-042>043-049>051-058-059-172100-
   Central Minnesota

CITY           SKY/WX    TMP DP  RH WIND       PRES   REMARKS
ST CLOUD       FAIR      33  13  43 W21G28    29.87S WCI  21
SAUK CENTRE    FAIR      31  11  44 W20G26    29.90R WCI  19
PAYNESVILLE    FAIR      35  14  43 NW20G29   29.89F WCI  24
AITKIN         FAIR      27  12  54 NW13G20   29.81S WCI  16
PINE RIVER     CLOUDY    23  10  58 W7G18     29.88R WCI  15
BRAINERD       FAIR      29  12  49 W15G23    29.85S WCI  18
STAPLES        FAIR      25  12  58 W18G24    29.88R WCI  11
LONG PRAIRIE   FAIR      30  12  47 W20G25    29.88S WCI  18
LITTLE FALLS   FAIR      30   5  34 W14G22    29.87S WCI  20
LITCHFIELD     FAIR      36  18  48 W17       29.90R
BUFFALO        FAIR      35  16  46 W15G25    29.89S WCI  26
MAPLE LAKE     FAIR      36  18  48 W15G26    29.88S
HUTCHINSON     FAIR      37  20  48 NW18      29.90S
$$
MNZ037-044-045-052-053-172100-
   East Central Minnesota

CITY           SKY/WX    TMP DP  RH WIND       PRES   REMARKS
PRINCETON      FAIR      37  16  41 W17       29.86S
MORA           FAIR      34  14  44 W14       29.86R WCI  24
CAMBRIDGE      FAIR      36  19  51 W10G23    29.86R
RUSH CITY      FAIR      35  16  45 W10G17    29.85R WCI  27
MOOSE LAKE     FAIR      30  12  47 NW12G17   29.79S WCI  21
HINCKLEY       FAIR      32  14  47 W15G21    29.83R WCI  22
CLOQUET        PTSUNNY   28  10  47 W16G23    29.77F WCI  17
MCGREGOR       PTSUNNY   30  14  51 W9G17     29.81S WCI  22
$$
MNZ071>073-080-081-089-090-097-098-172100-
   Southwest Minnesota

CITY           SKY/WX    TMP DP  RH WIND       PRES   REMARKS
MONTEVIDEO     PTSUNNY   39  16  38 N18G25    29.94R
GRANITE FALLS  MOSUNNY   39  19  44 W21G28    29.96R
CANBY          MOSUNNY   37  17  44 NW20G26   29.97R
MARSHALL       MOSUNNY   35  17  47 NW16      29.95R WCI  25
REDWOOD FALLS  MOSUNNY   37  17  44 NW16      29.93R
OLIVIA         SUNNY     36  19  51 NW20      29.91S
PIPESTONE      PTSUNNY   34  21  60 NW21G28   29.95S WCI  22
WINDOM         SUNNY     34  18  51 W13       29.93R WCI  25
WORTHINGTON    MOSUNNY   33  26  75 W16       29.96R WCI  23
JACKSON        MOSUNNY   32  27  80 W14       29.94S WCI  22
TRACY          MOSUNNY   37  24  58 NW15G21   29.94R
SLAYTON        MOSUNNY   34  23  65 W22       29.94S WCI  22
$$
MNZ065>067-074>077-082>085-091>093-172100-
   South Central Minnesota

CITY           SKY/WX    TMP DP  RH WIND       PRES   REMARKS
MANKATO        PTSUNNY   35  23  61 NW13      29.91S WCI  26
NEW ULM        SUNNY     34  21  60 W15       29.92S WCI  24
ST JAMES       SUNNY     34  25  69 W15       29.95R WCI  24
FAIRMONT       LGT RAIN  33  25  72 W17       29.94R WCI  22
GLENCOE        FAIR      37  21  52 W15G21    29.90R
FARIBAULT      FAIR      30  25  80 W10       29.90R WCI  21
OWATONNA       PTSUNNY   30  25  80 W9        29.90S WCI  22
WASECA         PTSUNNY   32  27  80 W12       29.92F WCI  23
ALBERT LEA     CLOUDY    28  21  74 W9        29.90S WCI  20
$$
MNZ078>079-086>088-094>096-172100-
   Southeast Minnesota

CITY           SKY/WX    TMP DP  RH WIND       PRES   REMARKS
ROCHESTER      CLOUDY    27  23  85 W14       29.88R WCI  16
RED WING       CLOUDY    30  19  64 W10       29.89S WCI  21
STANTON        PTSUNNY   32  24  73 W9        29.88S WCI  24
DODGE CENTER   CLOUDY    27  23  86 W13       29.88R WCI  16
WINONA         CLOUDY    30  23  74 W5        29.89S WCI  25
AUSTIN         CLOUDY    28  23  80 W12       29.89S WCI  18
PRESTON        CLOUDY    26  21  83 W13       29.89S WCI  15
$$
ABBREVIATIONS USED IN REMARKS
   TC - TEMPERATURES IN CELSIUS
  WCI - WIND CHILL INDEX
   HX - HEAT INDEX
  VSB - VISIBILITY
$$




USA.gov is the U.S. government's official web portal to all federal, state and local government web resources and services.